Flag for Canada Weather past 2 weeks in Cambridge, Ontario, Canada

Now
50 °F

Partly sunny.


Feels Like: 45 °F
Forecast: 32 / 52 °F
Wind: 13 mph from North

Location: Waterloo Well

Current Time: Apr 26, 2015 at 1:33:28 PM

Latest Report: Apr 26, 2015 at 1:00 PM


Visibility: 9 mi

Pressure: 29.85 "Hg

Humidity: 50%

Dew point: 32 °F

Location of CambridgeLocation

Historic Weather in Cambridge — Graph

°F

Cambridge temperature yesterday

Maximum temperature yesterday: 52 °F (at 4:00 PM)
Minimum temperature yesterday: 25 °F (at 5:00 AM)
Average temperature yesterday: 39 °F

Past Weeks' High & Low Weather Summary

 TemperatureHumidityPressure
High72 °F (Apr 13, 1:00 PM)100% (Apr 17, 3:00 AM)30.41 "Hg (Apr 17, 3:00 AM)
Low25 °F (Apr 25, 5:00 AM)19% (Apr 18, 3:00 PM)29.34 "Hg (Apr 20, 5:00 PM)
Average45 °F66%29.95 "Hg
* Reported Apr 11 12:00 Noon — Apr 26 12:00 Noon, Cambridge, Weather by CustomWeather, © 2015

Note: Actual official high and low records may vary slightly from our data, if they occured in-between our weather recording intervals... More about our weather records

Advertising

Cambridge weather history for previous 24 hours

 ConditionsComfort  
Time TempWeatherWind HumidityBarometerVisibility
12:00 PM
Sun, Apr 26
48 °FScattered clouds.13 mph54%29.86 "Hg9 mi
11:00 AM48 °FPassing clouds.13 mph50%29.87 "Hg9 mi
10:00 AM45 °FSunny.7 mph61%29.88 "Hg9 mi
9:00 AM43 °FSunny.6 mph61%29.88 "Hg9 mi
8:00 AM34 °FScattered clouds.5 mph87%29.88 "Hg9 mi
7:00 AM30 °FOvercast.3 mph93%29.87 "Hg9 mi
6:00 AM32 °FClear.3 mph87%29.84 "Hg9 mi
5:00 AM34 °FClear.3 mph75%29.82 "Hg9 mi
4:00 AM34 °FClear.6 mph75%29.81 "Hg9 mi
3:00 AM36 °FClear.7 mph70%29.81 "Hg9 mi
2:00 AM36 °FClear.7 mph70%29.81 "Hg9 mi
1:00 AM36 °FClear.9 mph70%29.82 "Hg9 mi
12:00 AM36 °FClear.7 mph70%29.84 "Hg9 mi
11:00 PM
Sat, Apr 25
37 °FClear.5 mph70%29.85 "Hg9 mi
10:00 PM41 °FPassing clouds.6 mph57%29.85 "Hg9 mi
9:00 PM43 °FScattered clouds.5 mph53%29.84 "Hg9 mi
8:00 PM46 °FPartly sunny.5 mph50%29.82 "Hg9 mi
7:00 PM50 °FSunny.12 mph43%29.80 "Hg9 mi
6:00 PM52 °FSunny.7 mph38%29.80 "Hg9 mi
5:00 PM52 °FSunny.12 mph38%29.80 "Hg9 mi
4:00 PM52 °FSunny.9 mph38%29.82 "Hg9 mi
3:00 PM50 °FSunny.7 mph37%29.86 "Hg9 mi
2:00 PM48 °FSunny.6 mph40%29.90 "Hg9 mi
1:00 PM46 °FSunny.8 mph40%29.93 "Hg9 mi
Weather by CustomWeather, © 2015

See weather overviewHow to use our weather pages